World > North America > United States > Iowa

Greeley, Iowa Regional Weather

Lat: 42.59N, Lon: 91.34W
Wx Zone: IAZ041Web Search
Greeley Weather Warning NWS WEATHER ALERT FOR THE GREELEY, IA AREA - Issued: 1054 AM CDT Sat May 8 2021 Greeley Weather Warning  

Ads allow us to feed your daily addiction for the world's greatest weather information. We're determined to offer quality sponsors, in the least annoying way possible.

Feedback


°F Click to change Greeley hourly weather to Imperial units.Click to change Greeley hourly weather to Metric units. °C
Greeley Weather Map
UTC Time: 5/9/2021, 04:33
Your Time:

Greeley, IA Regional Weather

Expires:202105090500;;820035
ASUS43 KDMX 090406
RWRIA 

WEATHER ROUNDUP FOR IOWA
NATIONAL WEATHER SERVICE DES MOINES IA
1100 PM CDT SAT MAY 08 2021

NOTE: "FAIR" INDICATES FEW OR NO CLOUDS BELOW 12,000 FEET WITH NO
SIGNIFICANT WEATHER AND/OR OBSTRUCTIONS TO VISIBILITY.

* - THESE STATIONS ARE NOT NWS STATIONS...THUS NOT UNDER NWS
QUALITY CONTROL.  THEY ALSO DO NOT REPORT WEATHER SUCH 
AS PRECIPITATION OR FOG.  


IAZ007>011-017>019-026>030-037>042-050>054-066-090500-
   NORTHEAST IOWA
  
CITY           SKY/WX    TMP DP  RH WIND       PRES   REMARKS
CEDAR RAPIDS   HVY RAIN  42  41  96 E15       29.96R FOG              
CHARLES CITY *   N/A    N/A N/A N/A MISG        N/A                   
CLINTON *      LGT RAIN  43  41  93 E21       30.01F                  
DECORAH *        N/A     41  39  93 VRB5      30.00F                  
DUBUQUE        LGT RAIN  40  32  73 E13       30.04R WCI  32          
MONTICELLO *   LGT RAIN  39  39 100 E12G18    30.01S WCI  32          
OELWEIN *      CLOUDY    39  37  93 E16       29.99F WCI  30          
WATERLOO       LGT RAIN  40  37  89 E12       29.99F WCI  33          
$$
 

SKY/WX - Weather  TMP - Temperature  DP - Dew Point  RH - Relative Humidity
WIND - Wind Direction/Speed PRES - Barometric Pressure VSB - Visibility
WCI - Wind Chill Index E13G22 Wind - East Wind 13 mph/Gusts of 22 mph